TimeEST,TemperatureF,Dew PointF,Humidity,Sea Level PressureIn,VisibilityMPH,Wind Direction,Wind SpeedMPH,Gust SpeedMPH,PrecipitationIn,Events,Conditions,WindDirDegrees,DateUTC
12:53 AM,24.1,19.0,81,30.39,10.0,NNW,4.6,-,N/A,,Overcast,330,2013-01-15 05:53:00
1:53 AM,24.1,19.0,81,30.39,10.0,NNW,3.5,-,N/A,,Overcast,340,2013-01-15 06:53:00
2:53 AM,24.1,17.1,75,30.40,10.0,NNW,8.1,-,N/A,,Overcast,330,2013-01-15 07:53:00
3:53 AM,25.0,18.0,75,30.39,10.0,North,8.1,-,N/A,,Overcast,10,2013-01-15 08:53:00
4:53 AM,23.0,16.0,74,30.39,10.0,North,9.2,-,N/A,,Mostly Cloudy,10,2013-01-15 09:53:00
5:53 AM,23.0,16.0,74,30.40,10.0,North,8.1,-,N/A,,Mostly Cloudy,360,2013-01-15 10:53:00
6:42 AM,21.2,15.8,80,30.39,10.0,NNE,5.8,-,N/A,,Scattered Clouds,30,2013-01-15 11:42:00
7:53 AM,21.0,15.1,78,30.41,10.0,NE,8.1,-,N/A,,Clear,40,2013-01-15 12:53:00
8:53 AM,21.9,17.1,82,30.43,10.0,NE,4.6,-,N/A,,Clear,50,2013-01-15 13:53:00
9:53 AM,24.1,17.1,75,30.41,10.0,ENE,10.4,-,N/A,,Clear,70,2013-01-15 14:53:00
10:53 AM,26.1,17.1,69,30.41,10.0,East,9.2,-,N/A,,Clear,100,2013-01-15 15:53:00
11:53 AM,28.0,16.0,61,30.40,10.0,ENE,8.1,-,N/A,,Clear,70,2013-01-15 16:53:00
12:53 PM,28.9,18.0,64,30.32,10.0,NE,9.2,-,N/A,,Clear,50,2013-01-15 17:53:00
1:53 PM,28.9,17.1,61,30.33,10.0,East,6.9,-,N/A,,Clear,80,2013-01-15 18:53:00
2:53 PM,30.0,19.0,64,30.29,10.0,ENE,11.5,-,N/A,,Clear,70,2013-01-15 19:53:00
3:53 PM,30.0,19.0,64,30.30,10.0,ENE,6.9,-,N/A,,Clear,70,2013-01-15 20:53:00
4:53 PM,28.9,19.0,67,30.29,10.0,NNE,10.4,-,N/A,,Partly Cloudy,30,2013-01-15 21:53:00
5:53 PM,28.9,19.0,67,30.26,10.0,ENE,9.2,-,N/A,,Overcast,60,2013-01-15 22:53:00
6:53 PM,28.0,19.9,72,30.25,10.0,NE,9.2,-,N/A,,Overcast,50,2013-01-15 23:53:00
7:53 PM,28.0,19.9,72,30.24,10.0,NNE,9.2,-,N/A,,Overcast,30,2013-01-16 00:53:00
8:53 PM,28.0,19.9,72,30.22,10.0,ENE,6.9,-,N/A,,Overcast,60,2013-01-16 01:53:00
9:53 PM,28.0,21.0,75,30.17,10.0,NE,5.8,-,N/A,,Overcast,50,2013-01-16 02:53:00
10:53 PM,28.0,21.0,75,30.15,10.0,NE,8.1,-,N/A,,Overcast,40,2013-01-16 03:53:00
11:53 PM,28.0,21.9,78,30.12,10.0,NE,8.1,-,N/A,,Overcast,40,2013-01-16 04:53:00